| time (UTC) | temp C | wind direction | speed KPH | gust KPH | rain 1hr cm | rain 24hr cm | rain mn cm | humidity % | barometer mb |
| 20260509011519 | 17 | 0.0 | 0.0 | 0.00 | 0.05 | 0.03 | 47 | 1010.6 | |
| 20260509010519 | 17 | 0.0 | 0.0 | 0.00 | 0.05 | 0.03 | 45 | 1010.5 | |
| 20260509005519 | 18 | 0.0 | 0.0 | 0.00 | 0.05 | 0.03 | 44 | 1010.5 | |
| 20260509004519 | 18 | 0.0 | 0.0 | 0.00 | 0.05 | 0.03 | 44 | 1010.7 | |
| 20260509003519 | 18 | 0.0 | 0.0 | 0.00 | 0.05 | 0.03 | 42 | 1010.7 | |
| 20260509002519 | 19 | 0.0 | 0.0 | 0.00 | 0.05 | 0.03 | 42 | 1010.7 | |
| 20260509001519 | 19 | 0.0 | 0.0 | 0.00 | 0.05 | 0.03 | 40 | 1010.8 | |
| 20260509000519 | 19 | 0.0 | 0.0 | 0.00 | 0.05 | 0.03 | 41 | 1010.6 | |
| 20260508235518 | 19 | 0.0 | 0.0 | 0.00 | 0.05 | 0.03 | 41 | 1010.8 | |
| 20260508234519 | 20 | 0.0 | 0.0 | 0.00 | 0.05 | 0.03 | 40 | 1010.9 | |
| 20260508233519 | 20 | 0.0 | 0.0 | 0.00 | 0.05 | 0.03 | 40 | 1010.9 | |
| 20260508232519 | 20 | 0.0 | 0.0 | 0.00 | 0.05 | 0.03 | 38 | 1010.9 | |
| 20260508231539 | 20 | 0.0 | 0.0 | 0.00 | 0.05 | 0.03 | 39 | 1010.8 | |
| 20260508230520 | 20 | 0.0 | 0.0 | 0.00 | 0.05 | 0.03 | 39 | 1010.9 | |
| 20260508225519 | 20 | 0.0 | 6.4 | 0.00 | 0.05 | 0.03 | 37 | 1010.9 | |
| 20260508224519 | 20 | 0.0 | 8.0 | 0.00 | 0.05 | 0.03 | 38 | 1010.9 | |
| 20260508223519 | 20 | 0.0 | 0.0 | 0.00 | 0.05 | 0.03 | 37 | 1010.9 | |
| 20260508222539 | 20 | 0.0 | 1.6 | 0.00 | 0.05 | 0.03 | 36 | 1011.0 | |
| 20260508221518 | 20 | 0.0 | 8.0 | 0.00 | 0.05 | 0.03 | 39 | 1010.9 | |
| 20260508220520 | 20 | 225 | 1.6 | 8.0 | 0.00 | 0.05 | 0.03 | 36 | 1010.8 |
| 20260508215518 | 20 | 0.0 | 0.0 | 0.00 | 0.05 | 0.03 | 38 | 1010.8 | |
| 20260508214519 | 20 | 0.0 | 8.0 | 0.00 | 0.05 | 0.03 | 37 | 1010.6 | |
| 20260508213539 | 20 | 158 | 3.2 | 12.9 | 0.00 | 0.05 | 0.03 | 36 | 1010.5 |
| 20260508212519 | 21 | 158 | 1.6 | 14.5 | 0.00 | 0.05 | 0.03 | 37 | 1010.9 |
| 20260508211519 | 20 | 0.0 | 1.6 | 0.00 | 0.05 | 0.03 | 38 | 1011.1 | |
| 20260508210519 | 21 | 0.0 | 0.0 | 0.00 | 0.08 | 0.03 | 37 | 1011.4 | |
| 20260508205518 | 21 | 0.0 | 8.0 | 0.00 | 0.08 | 0.03 | 38 | 1011.4 | |
| 20260508204518 | 21 | 0.0 | 1.6 | 0.00 | 0.08 | 0.03 | 37 | 1011.6 | |
| 20260508203518 | 21 | 0.0 | 0.0 | 0.00 | 0.08 | 0.03 | 38 | 1011.8 | |
| 20260508202519 | 21 | 0.0 | 1.6 | 0.00 | 0.08 | 0.03 | 38 | 1012.1 | |
| 20260508201520 | 21 | 0.0 | 8.0 | 0.00 | 0.08 | 0.03 | 37 | 1012.1 | |
| 20260508200519 | 21 | 0.0 | 8.0 | 0.00 | 0.08 | 0.03 | 38 | 1012.1 | |
| 20260508195518 | 21 | 0.0 | 12.9 | 0.00 | 0.08 | 0.03 | 39 | 1011.9 | |
| 20260508194539 | 21 | 0.0 | 0.0 | 0.00 | 0.08 | 0.03 | 39 | 1012.1 | |
| 20260508193518 | 21 | 0.0 | 0.0 | 0.00 | 0.08 | 0.03 | 36 | 1012.2 | |
| 20260508192524 | 21 | 0.0 | 1.6 | 0.00 | 0.08 | 0.03 | 37 | 1012.5 | |
| 20260508192020 | 21 | 0.0 | 0.0 | 0.00 | 0.08 | 0.03 | 39 | 1012.3 | |
| 20260508191021 | 21 | 0.0 | 6.4 | 0.00 | 0.08 | 0.03 | 36 | 1012.5 | |
| 20260508190023 | 21 | 0.0 | 1.6 | 0.00 | 0.08 | 0.03 | 37 | 1012.7 | |
| 20260508185019 | 20 | 225 | 1.6 | 8.0 | 0.00 | 0.08 | 0.03 | 38 | 1012.8 |
| 20260508184018 | 20 | 158 | 3.2 | 9.7 | 0.00 | 0.08 | 0.03 | 39 | 1012.9 |
| 20260508183018 | 20 | 0.0 | 8.0 | 0.00 | 0.08 | 0.03 | 39 | 1013.2 | |
| 20260508182044 | 20 | 0.0 | 12.9 | 0.00 | 0.08 | 0.03 | 40 | 1013.5 | |
| 20260508181518 | 20 | 0.0 | 12.9 | 0.00 | 0.08 | 0.03 | 40 | 1013.6 | |
| 20260508180518 | 20 | 0.0 | 9.7 | 0.00 | 0.08 | 0.03 | 41 | 1013.8 | |
| 20260508175518 | 20 | 0.0 | 0.0 | 0.00 | 0.08 | 0.03 | 42 | 1013.9 | |
| 20260508174519 | 20 | 0.0 | 0.0 | 0.00 | 0.08 | 0.03 | 43 | 1014.1 | |
| 20260508173519 | 19 | 0.0 | 0.0 | 0.00 | 0.08 | 0.03 | 43 | 1014.4 | |
| 20260508172520 | 19 | 0.0 | 0.0 | 0.00 | 0.08 | 0.03 | 42 | 1014.5 | |
| 20260508171518 | 19 | 0.0 | 0.0 | 0.00 | 0.08 | 0.03 | 43 | 1014.8 | |
| 20260508170538 | 19 | 0.0 | 0.0 | 0.00 | 0.08 | 0.03 | 43 | 1015.0 | |
| 20260508165518 | 19 | 0.0 | 0.0 | 0.00 | 0.08 | 0.03 | 45 | 1015.2 | |
| 20260508164518 | 18 | 0.0 | 1.6 | 0.03 | 0.08 | 0.03 | 45 | 1015.6 | |
| 20260508163518 | 18 | 0.0 | 0.0 | 0.03 | 0.08 | 0.03 | 46 | 1015.7 | |
| 20260508162518 | 18 | 0.0 | 0.0 | 0.03 | 0.08 | 0.03 | 47 | 1015.8 | |
| 20260508161518 | 18 | 0.0 | 0.0 | 0.03 | 0.08 | 0.03 | 46 | 1015.8 | |
| 20260508160558 | 18 | 0.0 | 0.0 | 0.03 | 0.08 | 0.03 | 46 | 1016.0 | |
| 20260508155518 | 18 | 0.0 | 0.0 | 0.03 | 0.08 | 0.03 | 46 | 1016.1 | |
| 20260508154518 | 18 | 0.0 | 0.0 | 0.00 | 0.05 | 0.00 | 46 | 1016.2 | |
| 20260508153518 | 17 | 0.0 | 0.0 | 0.00 | 0.05 | 0.00 | 48 | 1016.4 | |
| 20260508152518 | 17 | 0.0 | 0.0 | 0.00 | 0.05 | 0.00 | 52 | 1016.6 | |
| 20260508151518 | 17 | 0.0 | 0.0 | 0.00 | 0.05 | 0.00 | 49 | 1016.6 | |
| 20260508150518 | 17 | 0.0 | 0.0 | 0.00 | 0.05 | 0.00 | 51 | 1016.7 | |
| 20260508145520 | 17 | 0.0 | 0.0 | 0.00 | 0.05 | 0.00 | 49 | 1016.7 | |
| 20260508144518 | 16 | 0.0 | 0.0 | 0.00 | 0.05 | 0.00 | 49 | 1016.6 | |
| 20260508143518 | 16 | 0.0 | 0.0 | 0.00 | 0.08 | 0.00 | 50 | 1016.6 | |
| 20260508142518 | 16 | 0.0 | 6.4 | 0.00 | 0.08 | 0.00 | 49 | 1016.7 | |
| 20260508141518 | 15 | 0.0 | 0.0 | 0.00 | 0.08 | 0.00 | 50 | 1016.6 | |
| 20260508140518 | 15 | 0.0 | 0.0 | 0.00 | 0.08 | 0.00 | 52 | 1016.7 | |
| 20260508135538 | 15 | 0.0 | 0.0 | 0.00 | 0.08 | 0.00 | 50 | 1016.7 | |
| 20260508134518 | 15 | 0.0 | 0.0 | 0.00 | 0.08 | 0.00 | 54 | 1016.7 | |
| 20260508133518 | 14 | 0.0 | 0.0 | 0.00 | 0.08 | 0.00 | 57 | 1016.6 | |
| 20260508132518 | 13 | 0.0 | 0.0 | 0.00 | 0.08 | 0.00 | 57 | 1016.6 | |
| 20260508131517 | 13 | 0.0 | 0.0 | 0.00 | 0.08 | 0.00 | 61 | 1016.6 | |
| 20260508130518 | 12 | 0.0 | 0.0 | 0.00 | 0.08 | 0.00 | 61 | 1016.6 | |
| 20260508125517 | 12 | 0.0 | 0.0 | 0.00 | 0.08 | 0.00 | 59 | 1016.6 | |
| 20260508124539 | 12 | 0.0 | 0.0 | 0.00 | 0.08 | 0.00 | 62 | 1016.5 | |
| 20260508123538 | 11 | 0.0 | 0.0 | 0.00 | 0.08 | 0.00 | 64 | 1016.5 | |
| 20260508122522 | 10 | 0.0 | 0.0 | 0.00 | 0.08 | 0.00 | 68 | 1016.4 | |
| 20260508121520 | 10 | 0.0 | 0.0 | 0.00 | 0.08 | 0.00 | 71 | 1016.4 | |
| 20260508120520 | 8 | 0.0 | 0.0 | 0.00 | 0.08 | 0.00 | 76 | 1016.4 | |
| 20260508115520 | 7 | 0.0 | 0.0 | 0.00 | 0.08 | 0.00 | 78 | 1016.2 | |
| 20260508114520 | 7 | 0.0 | 0.0 | 0.00 | 0.08 | 0.00 | 80 | 1016.2 | |
| 20260508113520 | 6 | 0.0 | 0.0 | 0.00 | 0.08 | 0.00 | 82 | 1016.0 | |
| 20260508112520 | 6 | 0.0 | 0.0 | 0.00 | 0.08 | 0.00 | 82 | 1015.8 | |
| 20260508111520 | 6 | 0.0 | 0.0 | 0.00 | 0.08 | 0.00 | 83 | 1015.7 | |
| 20260508110520 | 5 | 0.0 | 0.0 | 0.00 | 0.08 | 0.00 | 83 | 1015.7 | |
| 20260508105520 | 5 | 0.0 | 0.0 | 0.00 | 0.08 | 0.00 | 83 | 1015.6 | |
| 20260508104520 | 5 | 0.0 | 0.0 | 0.00 | 0.08 | 0.00 | 83 | 1015.4 | |
| 20260508103520 | 5 | 0.0 | 0.0 | 0.00 | 0.08 | 0.00 | 83 | 1015.3 | |
| 20260508102540 | 5 | 0.0 | 0.0 | 0.00 | 0.08 | 0.00 | 83 | 1015.2 | |
| 20260508101520 | 5 | 0.0 | 0.0 | 0.00 | 0.08 | 0.00 | 83 | 1015.2 | |
| 20260508100540 | 5 | 0.0 | 0.0 | 0.00 | 0.08 | 0.00 | 83 | 1015.2 | |
| 20260508095519 | 5 | 0.0 | 0.0 | 0.00 | 0.08 | 0.00 | 83 | 1015.2 | |
| 20260508094520 | 5 | 0.0 | 0.0 | 0.00 | 0.08 | 0.00 | 83 | 1015.3 | |
| 20260508093519 | 5 | 0.0 | 0.0 | 0.00 | 0.08 | 0.00 | 83 | 1015.4 | |
| 20260508092520 | 5 | 0.0 | 0.0 | 0.00 | 0.08 | 0.00 | 83 | 1015.4 | |
| 20260508091519 | 5 | 0.0 | 0.0 | 0.00 | 0.08 | 0.00 | 83 | 1015.4 | |
| 20260508090540 | 5 | 0.0 | 0.0 | 0.00 | 0.08 | 0.00 | 83 | 1015.4 | |
| 20260508085519 | 5 | 0.0 | 0.0 | 0.00 | 0.08 | 0.00 | 83 | 1015.5 | |
| 20260508084540 | 5 | 0.0 | 0.0 | 0.00 | 0.08 | 0.00 | 83 | 1015.5 | |
| 20260508083540 | 5 | 0.0 | 0.0 | 0.00 | 0.08 | 0.00 | 83 | 1015.5 | |
| 20260508082519 | 5 | 0.0 | 0.0 | 0.00 | 0.08 | 0.00 | 84 | 1015.5 | |
| 20260508081519 | 5 | 0.0 | 0.0 | 0.00 | 0.08 | 0.00 | 84 | 1015.4 | |
| 20260508080521 | 5 | 0.0 | 0.0 | 0.00 | 0.08 | 0.00 | 84 | 1015.4 | |
| 20260508075519 | 5 | 0.0 | 0.0 | 0.00 | 0.08 | 0.00 | 84 | 1015.4 | |
| 20260508074520 | 5 | 0.0 | 0.0 | 0.00 | 0.08 | 0.00 | 84 | 1015.4 | |
| 20260508073519 | 5 | 0.0 | 0.0 | 0.00 | 0.08 | 0.00 | 85 | 1015.3 | |
| 20260508072519 | 5 | 0.0 | 0.0 | 0.00 | 0.08 | 0.00 | 85 | 1015.4 | |
| 20260508071519 | 5 | 0.0 | 0.0 | 0.00 | 0.08 | 0.00 | 85 | 1015.5 | |
| 20260508070519 | 5 | 0.0 | 0.0 | 0.00 | 0.08 | 0.00 | 85 | 1015.5 | |
| 20260508065519 | 5 | 0.0 | 0.0 | 0.00 | 0.08 | 0.00 | 84 | 1015.4 | |
| 20260508064520 | 5 | 0.0 | 0.0 | 0.00 | 0.08 | 0.00 | 83 | 1015.4 | |
| 20260508063520 | 5 | 0.0 | 0.0 | 0.00 | 0.08 | 0.00 | 83 | 1015.4 | |
| 20260508062520 | 6 | 0.0 | 0.0 | 0.00 | 0.08 | 0.00 | 83 | 1015.4 | |
| 20260508061519 | 6 | 0.0 | 0.0 | 0.00 | 0.08 | 0.00 | 83 | 1015.4 | |
| 20260508060519 | 6 | 0.0 | 0.0 | 0.00 | 0.08 | 0.00 | 82 | 1015.4 | |
| 20260508055519 | 6 | 0.0 | 0.0 | 0.00 | 0.08 | 0.00 | 81 | 1015.5 | |
| 20260508054539 | 6 | 0.0 | 0.0 | 0.00 | 0.08 | 0.00 | 82 | 1015.8 | |
| 20260508053541 | 6 | 0.0 | 0.0 | 0.00 | 0.08 | 0.00 | 81 | 1015.8 | |
| 20260508052519 | 6 | 0.0 | 0.0 | 0.00 | 0.08 | 0.00 | 81 | 1015.8 | |
| 20260508051519 | 6 | 0.0 | 0.0 | 0.00 | 0.08 | 0.00 | 80 | 1015.8 | |
| 20260508050519 | 6 | 0.0 | 0.0 | 0.00 | 0.08 | 0.00 | 80 | 1015.7 | |
| 20260508045519 | 6 | 0.0 | 0.0 | 0.00 | 0.08 | 0.00 | 79 | 1015.6 | |
| 20260508044519 | 7 | 0.0 | 0.0 | 0.00 | 0.08 | 0.00 | 79 | 1015.6 | |
| 20260508043519 | 7 | 0.0 | 0.0 | 0.00 | 0.08 | 0.00 | 79 | 1015.5 | |
| 20260508042519 | 7 | 0.0 | 0.0 | 0.03 | 0.08 | 0.00 | 79 | 1015.5 | |
| 20260508041519 | 7 | 0.0 | 0.0 | 0.03 | 0.08 | 0.00 | 77 | 1015.5 | |
| 20260508040519 | 7 | 0.0 | 0.0 | 0.03 | 0.08 | 0.00 | 76 | 1015.5 | |
| 20260508035520 | 7 | 0.0 | 0.0 | 0.03 | 0.08 | 0.08 | 75 | 1015.6 | |
| 20260508034519 | 7 | 0.0 | 0.0 | 0.03 | 0.08 | 0.08 | 74 | 1015.7 | |
| 20260508033520 | 7 | 0.0 | 0.0 | 0.03 | 0.08 | 0.08 | 73 | 1015.6 | |
| 20260508032519 | 7 | 0.0 | 0.0 | 0.00 | 0.05 | 0.05 | 72 | 1015.6 | |
| 20260508031520 | 8 | 0.0 | 0.0 | 0.00 | 0.05 | 0.05 | 72 | 1015.7 | |
| 20260508030519 | 8 | 0.0 | 0.0 | 0.00 | 0.08 | 0.05 | 70 | 1015.7 | |
| 20260508025520 | 8 | 0.0 | 0.0 | 0.00 | 0.08 | 0.05 | 68 | 1015.6 | |
| 20260508024519 | 8 | 0.0 | 0.0 | 0.00 | 0.08 | 0.05 | 66 | 1015.6 | |
| 20260508023519 | 9 | 0.0 | 0.0 | 0.00 | 0.08 | 0.05 | 66 | 1015.5 | |
| 20260508022519 | 9 | 0.0 | 0.0 | 0.00 | 0.08 | 0.05 | 63 | 1015.5 | |
| 20260508021520 | 10 | 0.0 | 0.0 | 0.00 | 0.08 | 0.05 | 64 | 1015.5 | |
| 20260508020519 | 10 | 0.0 | 0.0 | 0.00 | 0.08 | 0.05 | 61 | 1015.4 | |
| 20260508015519 | 10 | 0.0 | 0.0 | 0.00 | 0.08 | 0.05 | 62 | 1015.3 | |
| 20260508014519 | 10 | 0.0 | 0.0 | 0.00 | 0.08 | 0.05 | 59 | 1015.0 | |
| 20260508013520 | 11 | 0.0 | 0.0 | 0.00 | 0.08 | 0.05 | 58 | 1014.9 | |
| 20260508012519 | 11 | 0.0 | 0.0 | 0.00 | 0.08 | 0.05 | 58 | 1014.8 |